Погода в Уренгое

Россия / Ямало-Ненецкий автономный округ     65°57′43″N   78°22′21″E
темп.,
°C
ветер,
м/с
пор.,
м/с
влажн.,
%
обл.,
%
осадки,
мм/ч
давл.,
гПа
погр.,
м
28 июня, вт
вт2823:00+14св7138085 0.2 992367
02:00+11св81382100 0.6 992429
05:00+12св81182100 1.4 992484
08:00+10св81491100 5.4 992610
11:00+13св81278100 5.9 992753
14:00+12св81182100 0.0 994641
17:00+12ссв91484100 0.0 994609
20:00+13ссв101571100 0.0 994820
29 июня, ср
ср2923:00+12ссв91668100 0.0 994775
02:00+12с81555100 0.0 994680
05:00+10с91455100 0.0 995638
08:00+11с71157100 0.0 995691
11:00+16с7843100 0.0 9961188
14:00+18ссв6740100 0.0 9971576
17:00+19ссв4643100 0.0 9971769
20:00+17с3452100 0.0 99868
30 июня, чт
чт3023:00+15ссв6145062 0.0 998423
02:00+13ссв7145450 0.0 999385
05:00+14ссв71356100 0.0 999563
08:00+18св9115080 0.0 9991005
11:00+20св10114315 0.0 9991835
14:00+20св81147100 0.0 9981467
17:00+19св81253100 0.0 998749
20:00+18ссв10165376 0.1 996811
1 июля, пт
пт123:00+17ссв101756100 0.1 995845
02:00+14св121976100 1.1 994834
05:00+12св61090100 3.5 996519
08:00+13в2385100 1.4 997422
11:00+17вюв5653100 1.6 9981668
14:00+15в3554100 0.0 999908
17:00+16в235099 0.0 1000717
20:00+14св3360100 0.0 100061
2 июля, сб
сб223:00+13всв347068 0.0 100068
02:00+12вюв347597 0.0 1000120
05:00+13всв236785 0.0 999169
08:00+14ссв456695 0.0 999444
11:00+18ссв564887 0.3 9981661
14:00+17с875695 0.4 998968
17:00+16ссв5865100 2.1 997365
20:00+15с5872100 0.3 996202